Regional Weather Roundup
Issued by NWS

Home | Current Version | Previous Version | Text Only | Print | Product List | Glossary On
Versions: 1 2 3 4 5 6 7 8 9 10 11 12 13 14 15 16 17 18 19 20 21 22 23 24 25 26 27 28 29 30 31 32 33 34 35 36 37 38 39 40 41 42 43 44 45 46 47 48 49 50
000
ASUS43 KLMK 261102
RWRKY
KENTUCKY REGIONAL WEATHER ROUNDUP
NATIONAL WEATHER SERVICE LOUISVILLE KY
600 AM EST MON JAN 26 2015

NOTE "FAIR" INDICATES FEW OR NO CLOUDS BELOW 12,000 FEET
WITH NO SIGNIFICANT WEATHER AND/OR OBSTRUCTIONS TO VISIBILITY.

KYZ001>023-026-027-061>063-070>075-261200-
WESTERN AND SOUTH CENTRAL KENTUCKY

CITY           SKY/WX    TMP DP  RH WIND       PRES   REMARKS
PADUCAH        CLOUDY    32  27  81 NW13      30.00R WCI  22
HENDERSON      CLOUDY    30  25  80 N9        29.96S WCI  22
OWENSBORO      CLOUDY    30  25  82 N13G23    29.94R WCI  20
HOPKINSVILLE   CLOUDY    32  28  85 NW14G24   29.93R WCI  22
BOWLING GREEN  CLOUDY    32  27  81 NW10G22   29.88R WCI  24
GLASGOW        NOT AVBL
$$

KYZ024-025-028>034-038-045-046-053-261200-
NORTH CENTRAL KENTUCKY

CITY           SKY/WX    TMP DP  RH WIND       PRES   REMARKS
LOUISVILLE/SDF CLOUDY    26  21  81 NW16      29.87R WCI  14
LOUISVILLE/LOU CLOUDY    25  19  78 N12G24    29.87R WCI  14
FORT KNOX      CLOUDY    26  22  84 NW16G22   29.86R WCI  14
$$

KYZ035>037-039>044-047>052-055>060-089>105-261200-
NORTHEAST KENTUCKY

CITY           SKY/WX    TMP DP  RH WIND       PRES   REMARKS
LEXINGTON      CLOUDY    26  23  88 NW18G28   29.78R WCI  13
COVINGTON      CLOUDY    21  16  81 N17       29.81R WCI   7
FRANKFORT      CLOUDY    26  21  81 N14       29.80R WCI  14
$$

KYZ054-064>069-076>088-106>120-261200-
SOUTHEAST KENTUCKY

CITY           SKY/WX    TMP DP  RH WIND       PRES   REMARKS
JACKSON        LGT RAIN  40  38  93 VRB7      29.64R FOG
LONDON         CLOUDY    38  33  82 NW14      29.70R WCI  30
SOMERSET       NOT AVBL
MIDDLESBORO    NOT AVBL
MONTICELLO     LGT SNOW  34  33  96 NW14      29.79R FOG     WCI  25
$$



USA.gov is the U.S. government's official web portal to all federal, state and local government web resources and services.